STARLINK-4185 (53139 NORAD) Tracking and Keplerian Element Data

This shows tracking and keplerian element data for the satellite.

Feedback or suggestion? Click here.




ElementValue
Catalog53139
NameSTARLINK-4185
Epoch Orbit1171
Epoch Day270.25001157
Epoch Year2022
RAAN67.9709
Inclination53.2188
Eccentricity0.0001805
Argument of Perigee46.4286
Mean Anonmoly21.9064
Mean Motion15.08816555
Decay Rate0.00032625
L11 53139U 22083H 22270.25001157 .00032625 00000+0 20598-2 0 9993
L22 53139 53.2188 67.9709 0001805 46.4286 21.9064 15.08816555 11718

Live tracking and technical data element details for STARLINK-4185 (NORAD 53139). STARLINK-4185 can be tracked NOW for your location showing map with azimuth and elevation plus other details from your city location.

Track the satellite on the map from your city or location and see movement details for azimuth, elevation, latitude, longitude, range, height, and movement on the map or in text.







IsCatalogInMostPopularTable: catalog: 53139, numindb: 7
Update: records affected: 1



GetName: 53139 STARLINK-4185

Hit Count: updated at: Fri, 30 Sep 2022 03:51:16 GMT